Station KPTN6 - 8516945 - Kings Point, NY Image indicating link to RSS feed of recent meteorological observations for station KPTN6


Conditions at KPTN6 as of
(5:30 pm EDT)
2130 GMT on 05/30/2024:
     

Click on the graph icon in the table below to see a time series plot of the last five days of that observation.

5-day plot - Wind Direction Wind Direction (WDIR):NNE ( 20 deg true )
5-day plot - Wind Speed Wind Speed (WSPD): 6.0 kts
5-day plot - Wind Gust Wind Gust (GST): 8.9 kts
5-day plot - Atmospheric Pressure Atmospheric Pressure (PRES):29.96 in
5-day plot - Air Temperature Air Temperature (ATMP): 68.9 °F
5-day plot - Water Temperature Water Temperature (WTMP): 61.9 °F
5-day plot - Wind Speed at 10 Meters Wind Speed at 10 meters (WSPD10M): 5.8 kts
5-day plot - Wind Speed at 20 Meters Wind Speed at 20 meters (WSPD20M): 5.8 kts
5-day plot -  Wind Speed, Wind Gust and Atmospheric Pressure Combined plot of Wind Speed, Gust, and Air Pressure
NOS Water Level Observation Network Water Level
Previous observations
TIME
(EDT)
5-day plot - Wind Direction
WDIR
 
5-day plot - Wind Speed
WSPD
kts
5-day plot - Wind Gust
GST
kts
5-day plot - Wave Height
WVHT
ft
5-day plot - Dominant Wave Period
DPD
sec
5-day plot - Average Wave Period
APD
sec
5-day plot - Mean Wave Direction
MWD
 
5-day plot - Atmospheric Pressure
PRES
in
5-day plot - Pressure Tendency
PTDY
in
5-day plot - Air Temperature
ATMP
°F
5-day plot - Water Temperature
WTMP
°F
5-day plot - Dew Point
DEWP
°F
5-day plot - Salinity
SAL
psu
5-day plot - Visibility
VIS
nmi
5-day plot - Tide (above MLLW)
TIDE
ft
2024-05-30 05:24 pmNNE 5.1 8.9----29.96- 68.7 61.9----
2024-05-30 05:18 pmNNE 7.0 11.1----29.96- 69.4 62.1----
2024-05-30 05:12 pmNNE 5.1 8.9----29.96- 69.8 62.1----
2024-05-30 05:06 pmNNE 6.0 11.1----29.96- 69.8 62.1----
2024-05-30 05:00 pmNNE 5.1 8.9----29.96+0.02 69.3 62.1----
2024-05-30 04:54 pmNNE 8.9 12.0----29.96- 69.1 61.9----
2024-05-30 04:48 pmNNE 7.0 9.9----29.96-- 61.9----
2024-05-30 04:42 pmNNE 6.0 8.9----29.96-- 61.9----
2024-05-30 04:36 pmNNE 6.0 8.9----29.96-- 61.9----
2024-05-30 04:30 pmNNE 7.0 11.1----29.96- 68.4 61.7----
2024-05-30 04:24 pm N 8.0 9.9----29.96- 68.4 61.5----
2024-05-30 04:18 pm N 7.0 11.1----29.95- 68.0 61.5----
2024-05-30 04:12 pmNNE 8.0 9.9----29.95- 68.5 61.5----
2024-05-30 04:06 pmNNE 7.0 13.0----29.95- 68.7 61.7----
2024-05-30 04:00 pm N 6.0 8.9----29.95+0.00 68.0 61.7----
2024-05-30 03:54 pm N 8.9 13.0----29.95- 68.2 61.7----
2024-05-30 03:48 pm N 8.9 12.0----29.95- 68.2 61.7----
2024-05-30 03:42 pm N 9.9 13.0----29.95- 67.8 61.7----
2024-05-30 03:36 pm N 11.1 15.0----29.95- 67.8 61.7----
2024-05-30 03:30 pm N 12.0 14.0----29.95- 68.0 61.7----
2024-05-30 03:24 pm N 8.9 11.1----29.95- 67.8 61.7----
2024-05-30 03:18 pm N 8.9 13.0----29.95- 67.3 61.7----
2024-05-30 03:12 pm N 8.9 12.0----29.95- 67.3 61.7----
2024-05-30 03:06 pm N 9.9 13.0----29.95- 67.5 61.5----
2024-05-30 03:00 pm N 9.9 12.0----29.95-0.01 67.6 61.5----
2024-05-30 02:54 pm N 8.0 12.0----29.95- 67.6 61.5----
2024-05-30 02:48 pmNNE 8.9 12.0----29.95- 67.5 61.5----
2024-05-30 02:42 pm N 8.0 13.0----29.95- 66.7 61.5----
2024-05-30 02:36 pm N 9.9 12.0----29.95- 67.1 62.8----
2024-05-30 02:30 pm N 8.0 11.1----29.95- 66.6 63.0----
2024-05-30 02:24 pm N 11.1 13.0----29.95- 66.0 62.8----
2024-05-30 02:18 pmNNW 9.9 14.0----29.95- 65.5 63.0----
2024-05-30 02:12 pm N 8.9 11.1----29.95- 65.5 63.1----
2024-05-30 02:06 pm N 8.0 11.1----29.95- 66.4 63.3----
2024-05-30 02:00 pm N 8.9 13.0----29.95-0.02 66.2 63.5----
2024-05-30 01:54 pm N 11.1 13.0----29.95- 65.8 63.7----
2024-05-30 01:48 pm N 12.0 14.0----29.95-- 63.7----
2024-05-30 01:42 pm N 8.9 12.0----29.95-- 63.7----
2024-05-30 01:36 pm N 9.9 15.0----29.95-- 63.7----
2024-05-30 01:30 pm N 9.9 14.0----29.95- 64.6 63.7----
2024-05-30 01:24 pmNNW 8.9 11.1----29.95- 63.9 63.9----
2024-05-30 01:18 pmNNW 8.9 12.0----29.95- 64.0 63.7----
2024-05-30 01:12 pm N 8.9 11.1----29.95- 64.0 63.3----
2024-05-30 01:06 pmNNW 8.9 12.0----29.95- 63.7 63.1----
2024-05-30 01:00 pmNNW 13.0 15.0----29.95-0.02 63.5 63.0----
2024-05-30 12:54 pmNNW 12.0 14.0----29.95- 63.3 63.0----
2024-05-30 12:48 pmNNW 12.0 15.0----29.95- 63.3 63.0----
2024-05-30 12:42 pmNNW 14.0 15.9----29.96- 63.1 63.0----
2024-05-30 12:36 pm N 8.9 14.0----29.96- 63.0 62.8----
2024-05-30 12:30 pmNNW 12.0 15.9----29.96- 62.8 62.8----
2024-05-30 12:24 pmNNW 11.1 18.1----29.96- 62.8 62.4----
2024-05-30 12:18 pmNNW 15.0 18.1----29.96- 62.2 62.4----
2024-05-30 12:12 pmNNW 14.0 17.1----29.96- 62.2 62.4----
2024-05-30 12:06 pm N 12.0 15.0----29.96- 62.2 62.2----
2024-05-30 12:00 pmNNW 14.0 19.0----29.96-0.01 62.1 62.2----
2024-05-30 11:54 amNNW 13.0 19.0----29.96- 61.9 62.2----
2024-05-30 11:48 amNNW 14.0 18.1----29.96-- 62.2----
2024-05-30 11:42 amNNW 15.9 18.1----29.96-- 62.1----
2024-05-30 11:36 amNNW 15.0 19.0----29.96-- 61.9----
2024-05-30 11:30 amNNW 18.1 22.0----29.96- 61.0 61.9----
2024-05-30 11:24 amNNW 15.0 18.1----29.96- 60.8 61.7----
2024-05-30 11:18 amNNW 15.9 19.0----29.96- 60.4 61.7----
2024-05-30 11:12 amNNW 15.0 18.1----29.97- 60.4 61.7----
2024-05-30 11:06 amNNW 18.1 19.0----29.97- 60.3 61.7----
2024-05-30 11:00 amNNW 15.0 18.1----29.97+0.01 60.1 61.5----
2024-05-30 10:54 amNNW 14.0 15.9----29.97- 59.9 61.5----
2024-05-30 10:48 am N 14.0 18.1----29.97- 59.9 61.5----
2024-05-30 10:42 amNNW 12.0 15.9----29.97- 59.5 61.3----
2024-05-30 10:36 amNNW 13.0 17.1----29.97- 59.5 61.3----
2024-05-30 10:30 amNNW 11.1 14.0----29.97- 59.7 61.3----
2024-05-30 10:24 amNNW 11.1 15.0----29.97- 59.4 61.3----
2024-05-30 10:18 am NW 9.9 12.0----29.98- 59.2 61.2----
2024-05-30 10:12 amNNW 9.9 12.0----29.97- 58.8 61.2----
2024-05-30 10:06 amNNW 8.0 11.1----29.97- 58.8 61.2----
2024-05-30 10:00 am N 8.0 13.0----29.97+0.04 58.5 61.0----
2024-05-30 09:54 amNNW 8.9 12.0----29.98- 58.3 61.0----
2024-05-30 09:48 amNNW 11.1 14.0----29.98- 58.1 61.0----
2024-05-30 09:42 am N 12.0 15.9----29.98- 58.1 60.8----
2024-05-30 09:36 amNNW 13.0 15.9----29.97- 57.9 60.8----
2024-05-30 09:30 am N 14.0 15.9----29.97- 57.7 60.8----
2024-05-30 09:24 amNNW 14.0 17.1----29.97- 57.6 60.6----
2024-05-30 09:18 amNNW 14.0 17.1----29.97- 57.6 60.6----
2024-05-30 09:12 amNNW 14.0 15.9----29.97- 57.6 60.6----
2024-05-30 09:06 amNNW 14.0 20.0----29.97- 57.6 60.6----
2024-05-30 09:00 amNNW 17.1 20.0----29.97- 57.6 60.4----
2024-05-30 08:54 amNNW 14.0 17.1----29.97- 57.4 60.4----
2024-05-30 08:48 amNNW 15.9 18.1----29.97- 56.8 60.4----
2024-05-30 08:42 amNNW 14.0 17.1----29.96- 57.0 60.4----
2024-05-30 08:36 amNNW 13.0 18.1----29.96- 56.8 60.4----
2024-05-30 08:30 amNNW 13.0 15.9----29.96- 57.0 60.4----
2024-05-30 08:24 amNNW 12.0 15.0----29.96- 56.8 60.4----
2024-05-30 08:18 amNNW 13.0 15.9----29.96- 56.8 60.3----
2024-05-30 08:12 am NW 11.1 14.0----29.96- 57.0 60.3----
2024-05-30 08:06 am NW 12.0 13.0----29.96- 57.2 60.4----
2024-05-30 08:00 amNNW 9.9 12.0----29.96- 57.2 60.6----
2024-05-30 07:54 amNNW 9.9 12.0----29.96- 57.2 60.4----
2024-05-30 07:48 am N 11.1 13.0----29.95-- 60.4----
2024-05-30 07:42 amNNW 12.0 13.0----29.95-- 60.4----
2024-05-30 07:36 amNNW 13.0 15.0----29.94-- 60.4----
2024-05-30 07:30 am N 12.0 14.0----29.94- 57.4 60.1----
2024-05-30 07:24 am N 12.0 15.0----29.93- 57.4 59.0----
2024-05-30 07:18 am N 13.0 15.9----29.93- 57.4 59.0----
2024-05-30 07:12 am N 14.0 15.9----29.93- 57.0 59.0----
2024-05-30 07:06 amNNW 13.0 17.1----29.93- 57.0 59.7----
2024-05-30 07:00 am N 12.0 15.0----29.93- 57.2 59.9----
2024-05-30 06:54 am N 14.0 18.1----29.93- 57.0 60.3----
2024-05-30 06:48 amNNW 14.0 17.1----29.93- 57.2 60.4----
2024-05-30 06:42 am N 15.0 17.1----29.93- 57.2 60.4----
2024-05-30 06:36 am N 14.0 19.0----29.93- 57.4 60.4----
2024-05-30 06:30 am N 17.1 19.0----29.93- 57.4 60.4----
2024-05-30 06:24 am N 15.9 19.0----29.93- 57.7 60.4----
2024-05-30 06:18 am N 17.1 21.0----29.92- 57.6 60.4----
2024-05-30 06:12 amNNW 18.1 21.0----29.92- 57.7 60.6----
2024-05-30 06:06 amNNW 15.0 19.0----29.92- 57.7 60.6----
2024-05-30 06:00 amNNW 15.0 19.0----29.93+0.03 57.7 60.6----
2024-05-30 05:54 amNNW 11.1 13.0----29.92- 57.6 60.6----
2024-05-30 05:48 amNNW 11.1 15.0----29.92- 57.9 60.4----
2024-05-30 05:42 amNNW 14.0 15.9----29.92- 57.9 60.4----
2024-05-30 05:36 amNNW 15.9 18.1----29.91- 58.1 60.4----
2024-05-30 05:30 amNNW 15.0 18.1----29.91- 58.3 60.8----
2024-05-30 05:24 amNNW 15.0 18.1----29.91- 58.3 60.6----
2024-05-30 05:18 amNNW 15.0 18.1----29.91- 58.6 60.6----
2024-05-30 05:12 amNNW 15.0 17.1----29.91- 58.8 61.0----
2024-05-30 05:06 amNNW 15.0 18.1----29.91- 59.0 60.8----
2024-05-30 05:00 amNNW 13.0 15.0----29.90-0.01 59.0 60.8----
2024-05-30 04:54 am NW 14.0 15.9----29.90- 59.2 60.8----
2024-05-30 04:48 am NW 13.0 15.9----29.89-- 60.8----
2024-05-30 04:42 am NW 13.0 15.0----29.89-- 60.8----
2024-05-30 04:36 am NW 12.0 14.0----29.89-- 60.8----
2024-05-30 04:30 am NW 12.0 14.0----29.88- 60.6 60.8----
2024-05-30 04:24 amWNW 7.0 11.1----29.88- 60.3 60.4----
2024-05-30 04:18 amWNW 7.0 11.1----29.88- 60.3 60.4----
2024-05-30 04:12 am- 0.0 1.9----29.88- 60.1 60.4----
2024-05-30 04:06 am S 1.9 1.9----29.88- 59.9 60.4----
2024-05-30 04:00 am S 1.9 1.9----29.88-0.01 59.9 60.4----
2024-05-30 03:54 am SW 2.9 2.9----29.89- 60.3 60.4----
2024-05-30 03:48 amWSW 1.9 1.9----29.89-- 61.0----
2024-05-30 03:42 am W 2.9 2.9----29.89-- 61.0----
2024-05-30 03:36 amWSW 1.9 2.9----29.89-- 61.2----
2024-05-30 03:30 amWSW 2.9 4.1----29.89- 59.9 61.2----
2024-05-30 03:24 amWSW 2.9 2.9----29.89- 59.9 61.2----
2024-05-30 03:18 am SW 1.9 1.9----29.89- 59.9 61.3----
2024-05-30 03:12 amSSW 1.9 1.9----29.89- 59.9 61.3----
2024-05-30 03:06 am W 1.0 1.0----29.89- 59.9 61.3----
2024-05-30 03:00 am- 0.0 1.0----29.89-0.04 59.9 61.3----
2024-05-30 02:54 am- 0.0 0.0----29.89- 60.1 61.3----
2024-05-30 02:48 am- 0.0 1.0----29.89- 60.1 61.3----
2024-05-30 02:42 am N 1.0 1.9----29.90- 60.1 61.5----
2024-05-30 02:36 am N 1.0 2.9----29.90- 60.3 61.5----
2024-05-30 02:30 amENE 2.9 2.9----29.90- 59.9 61.7----
2024-05-30 02:24 amENE 2.9 2.9----29.90- 59.9 61.5----
2024-05-30 02:18 am E 1.9 1.9----29.91- 59.9 61.5----
2024-05-30 02:12 amESE 1.0 1.9----29.91- 60.1 61.2----
2024-05-30 02:06 am NE 1.0 1.9----29.91- 60.3 61.2----
2024-05-30 02:00 am- 0.0 1.9----29.91+0.00 60.1 61.0----
2024-05-30 01:54 am W 1.9 4.1----29.91- 60.3 61.2----
2024-05-30 01:48 amWNW 4.1 5.1----29.91-- 61.2----
2024-05-30 01:42 am W 5.1 8.0----29.91-- 61.2----
2024-05-30 01:36 amWSW 5.1 7.0----29.91-- 61.3----
2024-05-30 01:30 amSSE 1.9 4.1----29.90- 59.9 61.2----
2024-05-30 01:24 am E 2.9 5.1----29.88- 59.9 61.2----
2024-05-30 01:18 am E 2.9 7.0----29.88- 59.9 61.2----
2024-05-30 01:12 amENE 5.1 8.9----29.88- 60.1 61.2----
2024-05-30 01:06 am NE 6.0 9.9----29.88- 60.3 61.0----
2024-05-30 01:00 am NE 5.1 7.0----29.89-0.05 60.4 61.0----
2024-05-30 12:54 am NE 5.1 8.0----29.90- 60.4 61.0----
2024-05-30 12:48 amNNE 6.0 8.0----29.90-- 61.2----
2024-05-30 12:42 amNNE 4.1 7.0----29.90-- 61.3----
2024-05-30 12:36 am N 5.1 9.9----29.91-- 61.3----
2024-05-30 12:30 am N 8.0 9.9----29.91- 61.0 61.5----
2024-05-30 12:24 am N 8.0 8.9----29.91- 61.0 61.7----
2024-05-30 12:18 am N 7.0 8.0----29.92- 61.0 62.2----
2024-05-30 12:12 amNNW 6.0 6.0----29.93- 61.0 63.7----
2024-05-30 12:06 amNNW 5.1 5.1----29.93- 61.0 63.7----
2024-05-30 12:00 am NW 2.9 4.1----29.93+0.05 61.0 63.9----
2024-05-29 11:54 pmNNW 2.9 5.1----29.93- 60.8 63.9----
2024-05-29 11:48 pmNNW 4.1 5.1----29.93- 60.8 63.9----
2024-05-29 11:42 pm NW 4.1 4.1----29.93- 60.8 63.9----
2024-05-29 11:36 pm NW 4.1 6.0----29.94- 60.8 63.7----
2024-05-29 11:30 pm W 4.1 6.0----29.94- 60.8 63.7----
2024-05-29 11:24 pmNNW 5.1 6.0----29.93- 61.2 63.5----
2024-05-29 11:18 pmNNW 5.1 7.0----29.93- 61.2 63.3----
2024-05-29 11:12 pm N 6.0 8.0----29.93- 61.2 63.5----
2024-05-29 11:06 pm N 6.0 9.9----29.92- 61.3 63.7----
2024-05-29 11:00 pmNNW 8.0 9.9----29.92+0.04 61.3 63.9----
2024-05-29 10:54 pm N 8.9 8.9----29.92- 61.5 63.9----
2024-05-29 10:48 pmNNW 7.0 8.0----29.93- 61.3 63.7----
2024-05-29 10:42 pmNNW 6.0 7.0----29.93- 61.2 63.7----
2024-05-29 10:36 pm NW 6.0 8.0----29.94- 61.2 63.7----
2024-05-29 10:30 pmWNW 7.0 8.9----29.94- 61.0 63.1----
2024-05-29 10:24 pm W 7.0 8.9----29.94- 61.2 63.1----
2024-05-29 10:18 pm W 8.0 9.9----29.94- 61.2 63.3----
2024-05-29 10:12 pm W 8.9 13.0----29.94- 61.3 63.0----
2024-05-29 10:06 pmWSW 8.0 9.9----29.94- 61.5 63.1----
2024-05-29 10:00 pm W 6.0 11.1----29.94+0.06 61.5 63.1----
2024-05-29 09:54 pm W 9.9 15.9----29.94- 61.7 63.3----
2024-05-29 09:48 pmWSW 15.0 21.0----29.94- 62.1 63.7----
2024-05-29 09:42 pmWSW 15.0 19.0----29.93- 62.8 63.5----
2024-05-29 09:36 pm W 12.0 17.1----29.93- 63.1 63.7----
2024-05-29 09:30 pm W 18.1 28.0----29.93- 63.7 63.7----
2024-05-29 09:24 pmWSW 22.9 28.9----29.91- 64.4 63.7----
2024-05-29 09:18 pmSSW 14.0 17.1----29.91- 68.0 63.5----
2024-05-29 09:12 pm S 13.0 14.0----29.89- 68.0 63.3----
2024-05-29 09:06 pm S 12.0 13.0----29.89- 67.5 63.5----
2024-05-29 09:00 pm S 11.1 12.0----29.88+0.01 67.5 63.9----
2024-05-29 08:54 pmSSE 9.9 12.0----29.88- 67.5 63.7----
2024-05-29 08:48 pm S 9.9 11.1----29.88- 67.3 62.8----
2024-05-29 08:42 pm S 9.9 11.1----29.88- 67.3 62.4----
2024-05-29 08:36 pm S 9.9 12.0----29.88- 67.5 62.1----
2024-05-29 08:30 pm S 9.9 12.0----29.88- 67.3 61.9----
2024-05-29 08:24 pmSSE 11.1 13.0----29.88- 67.3 62.6----
2024-05-29 08:18 pmSSE 12.0 14.0----29.88- 67.1 62.8----
2024-05-29 08:12 pm S 13.0 14.0----29.88- 67.3 62.6----
2024-05-29 08:06 pmSSE 12.0 14.0----29.88- 67.5 62.6----
2024-05-29 08:00 pmSSE 9.9 12.0----29.88+0.00 67.3 62.6----
2024-05-29 07:54 pmSSE 9.9 13.0----29.88- 67.3 62.6----
2024-05-29 07:48 pm S 13.0 14.0----29.88-- 62.4----
2024-05-29 07:42 pm S 11.1 13.0----29.88-- 62.2----
2024-05-29 07:36 pm S 9.9 14.0----29.88-- 61.5----
2024-05-29 07:30 pm S 11.1 13.0----29.88- 68.0 61.3----
2024-05-29 07:24 pm S 12.0 14.0----29.88- 68.2 61.0----
2024-05-29 07:18 pmSSE 12.0 13.0----29.88- 68.0 60.8----
2024-05-29 07:12 pm S 12.0 14.0----29.88- 68.4 61.0----
2024-05-29 07:06 pm S 13.0 15.0----29.88- 68.9 60.8----
2024-05-29 07:00 pm S 14.0 15.0----29.88+0.00 68.9 60.8----
2024-05-29 06:54 pm S 12.0 14.0----29.88- 69.3 61.0----
2024-05-29 06:48 pm S 11.1 13.0----29.88- 69.6 61.0----
2024-05-29 06:42 pm S 12.0 13.0----29.88- 69.8 60.8----
2024-05-29 06:36 pm S 9.9 12.0----29.88- 69.3 60.3----
2024-05-29 06:30 pm S 9.9 13.0----29.88- 69.6 60.3----
2024-05-29 06:24 pm S 11.1 14.0----29.88- 69.4 60.4----
2024-05-29 06:18 pm S 11.1 14.0----29.88- 70.3 60.6----
2024-05-29 06:12 pm S 12.0 12.0----29.88- 70.9 60.4----
2024-05-29 06:06 pm S 8.0 8.9----29.88- 70.0 60.6----
2024-05-29 06:00 pm S 8.0 8.9----29.88-0.03 70.9 60.6----
2024-05-29 05:54 pm S 7.0 8.0----29.88- 70.5 60.6----